User: anonymous   Login
Location: Hancock Field Station
(44.9202°N, 120.4259°W)
Time: 16:15:18
(UTC-07:00)
Language:

Cosmos 1707 - Orbit

View from above orbital plane
View from above orbital plane
View from above satellite
View from above satellite

Ground track
Ground track

The orbit data is extracted from the following two-line orbital elements,

1 16326U 85113A   16236.82974342 +.00000653 +00000-0 +35464-4 0  9993
2 16326 082.5132 140.3504 0009140 245.9035 114.1240 15.12777874672108
Epoch (UTC): 23 August 2016 19:54:49
Eccentricity: 0.0009140
inclination: 82.5132°
perigee height: 521 km
apogee height: 534 km
right ascension of ascending node: 140.3504°
argument of perigee: 245.9035°
revolutions per day: 15.12777874
mean anomaly at epoch: 114.1240°
orbit number at epoch: 67210

The dashed part of the orbit path shows where the satellite is in the earth's shadow,  

DLR